EW6170 Weather Reports


Display with metric or nautical units.
time (UTC)temp
F
wind
direction
speed
MPH
gust
MPH
rain 1hr
in
rain 24hr
in
rain mn
in
humidity
%
barometer
mb
20210922165516 78 317 5.0 12.0 0.00 0.00 0.00 30 1025.0
20210922165010 77 290 3.0 13.0 0.00 0.00 0.00 31 1024.9
20210922164504 77 311 3.0 13.0 0.00 0.00 0.00 30 1024.9
20210922163958 76 250 4.0 11.0 0.00 0.00 0.00 30 1025.1
20210922163451 77 284 4.0 0.0 0.00 0.00 0.00 30 1025.3
20210922162839 77 255 3.0 14.0 0.00 0.00 0.00 32 1025.3
20210922162334 76 291 3.0 14.0 0.00 0.00 0.00 33 1025.3
20210922161827 76 294 3.0 13.0 0.00 0.00 0.00 33 1025.3
20210922161326 76 284 3.0 12.0 0.00 0.00 0.00 33 1025.4
20210922160820 76 297 4.0 13.0 0.00 0.00 0.00 34 1025.4
20210922160314 75 327 4.0 13.0 0.00 0.00 0.00 33 1025.4
20210922155808 75 306 4.0 14.0 0.00 0.00 0.00 34 1025.5
20210922155305 75 305 4.0 14.0 0.00 0.00 0.00 34 1025.6
20210922154752 75 319 4.0 13.0 0.00 0.00 0.00 34 1025.6
20210922154246 75 322 5.0 13.0 0.00 0.00 0.00 34 1025.6
20210922153744 74 288 5.0 13.0 0.00 0.00 0.00 35 1025.6
20210922153237 74 304 4.0 13.0 0.00 0.00 0.00 35 1025.5
20210922152732 74 322 4.0 13.0 0.00 0.00 0.00 35 1025.4
20210922152225 74 289 4.0 13.0 0.00 0.00 0.00 36 1025.4
20210922151719 74 328 4.0 12.0 0.00 0.00 0.00 36 1025.4
20210922151210 74 303 3.0 14.0 0.00 0.00 0.00 38 1025.3
20210922150708 73 284 3.0 14.0 0.00 0.00 0.00 38 1025.3
20210922150202 72 305 4.0 14.0 0.00 0.00 0.00 39 1025.3
20210922145656 72 286 4.0 14.0 0.00 0.00 0.00 39 1025.2
20210922145149 72 325 4.0 13.0 0.00 0.00 0.00 40 1025.3
20210922144640 72 285 5.0 13.0 0.00 0.00 0.00 40 1025.1
20210922144137 72 281 5.0 14.0 0.00 0.00 0.00 40 1025.1
20210922143627 72 292 4.0 14.0 0.00 0.00 0.00 40 1025.0
20210922143125 72 292 3.0 11.0 0.00 0.00 0.00 41 1024.9
20210922142620 72 302 4.0 13.0 0.00 0.00 0.00 41 1024.9
20210922142114 71 304 4.0 13.0 0.00 0.00 0.00 42 1024.9
20210922141607 71 295 5.0 13.0 0.00 0.00 0.00 42 1024.9
20210922141057 71 312 4.0 13.0 0.00 0.00 0.00 42 1024.9
20210922140608 70 278 4.0 15.0 0.00 0.00 0.00 43 1024.9
20210922140049 70 318 5.0 15.0 0.00 0.00 0.00 43 1024.9
20210922135539 70 296 5.0 15.0 0.00 0.00 0.00 43 1024.9
20210922135033 70 276 5.0 15.0 0.00 0.00 0.00 43 1024.7
20210922134531 70 250 5.0 15.0 0.00 0.00 0.00 43 1024.8
20210922134026 70 280 3.0 15.0 0.00 0.00 0.00 43 1024.8
20210922133519 70 311 3.0 12.0 0.00 0.00 0.00 42 1024.7
20210922133014 70 313 3.0 14.0 0.00 0.00 0.00 42 1024.7
20210922132504 70 305 4.0 14.0 0.00 0.00 0.00 43 1024.6
20210922132001 69 305 5.0 13.0 0.00 0.00 0.00 43 1024.6
20210922131455 69 290 4.0 13.0 0.00 0.00 0.00 43 1024.4
20210922130949 69 270 2.0 10.0 0.00 0.00 0.00 43 1024.3
20210922130443 69 286 2.0 12.0 0.00 0.00 0.00 43 1024.4
20210922125938 69 270 3.0 12.0 0.00 0.00 0.00 43 1024.4
20210922125428 69 263 3.0 11.0 0.00 0.00 0.00 43 1024.4
20210922124921 68 302 4.0 14.0 0.00 0.00 0.00 43 1024.4
20210922124415 69 296 3.0 14.0 0.00 0.00 0.00 43 1024.3
20210922123913 69 305 3.0 14.0 0.00 0.00 0.00 43 1024.3
20210922123407 69 273 4.0 14.0 0.00 0.00 0.00 42 1024.1
20210922122901 69 267 4.0 13.0 0.00 0.00 0.00 42 1024.0
20210922122358 69 304 3.0 13.0 0.00 0.00 0.00 43 1024.1
20210922121900 69 320 3.0 13.0 0.00 0.00 0.00 43 1024.1
20210922121357 69 291 3.0 13.0 0.00 0.00 0.00 43 1024.1
20210922120856 69 294 4.0 13.0 0.00 0.00 0.00 43 1024.2
20210922120358 69 281 3.0 16.0 0.00 0.00 0.00 44 1024.1
20210922115856 69 311 3.0 16.0 0.00 0.00 0.00 44 1024.1
20210922115357 69 286 4.0 13.0 0.00 0.00 0.00 44 1023.9
20210922114856 69 269 3.0 13.0 0.00 0.00 0.00 44 1023.9
20210922114357 69 313 4.0 13.0 0.00 0.00 0.00 45 1023.7
20210922113856 70 308 4.0 13.0 0.00 0.00 0.00 45 1023.7
20210922113352 70 293 3.0 13.0 0.00 0.00 0.00 45 1023.6
20210922112852 70 277 4.0 13.0 0.00 0.00 0.00 45 1023.6
20210922112353 70 326 4.0 13.0 0.00 0.00 0.00 45 1023.5
20210922111850 70 306 3.0 12.0 0.00 0.00 0.00 44 1023.5
20210922111350 70 286 3.0 12.0 0.00 0.00 0.00 44 1023.5
20210922110850 70 279 4.0 12.0 0.00 0.00 0.00 44 1023.4
20210922110349 71 285 4.0 12.0 0.00 0.00 0.00 44 1023.4
20210922105849 71 287 3.0 16.0 0.00 0.00 0.00 44 1023.4
20210922105348 71 302 3.0 16.0 0.00 0.00 0.00 44 1023.2
20210922104843 71 285 4.0 16.0 0.00 0.00 0.00 44 1023.1
20210922104335 71 282 4.0 16.0 0.00 0.00 0.00 44 1023.0
20210922103829 71 296 3.0 12.0 0.00 0.00 0.00 44 1022.9
20210922103322 71 281 3.0 14.0 0.00 0.00 0.00 44 1022.9
20210922102813 71 298 3.0 14.0 0.00 0.00 0.00 44 1022.9
20210922102306 71 297 3.0 12.0 0.00 0.00 0.00 43 1022.9
20210922101759 72 292 4.0 12.0 0.00 0.00 0.00 43 1022.7
20210922101253 72 305 4.0 12.0 0.00 0.00 0.00 43 1022.6
20210922100746 72 288 4.0 14.0 0.00 0.00 0.00 43 1022.5
20210922100237 72 284 5.0 14.0 0.00 0.00 0.00 42 1022.5
20210922095729 72 293 4.0 16.0 0.00 0.00 0.00 42 1022.5
20210922095221 72 257 4.0 16.0 0.00 0.00 0.00 42 1022.4
20210922094719 72 323 3.0 16.0 0.00 0.00 0.00 42 1022.3
20210922094219 73 294 3.0 16.0 0.00 0.00 0.00 42 1022.4
20210922093718 73 299 4.0 13.0 0.00 0.00 0.00 42 1022.4
20210922093218 73 287 4.0 13.0 0.00 0.00 0.00 41 1022.4
20210922092714 73 305 3.0 13.0 0.00 0.00 0.00 41 1022.4
20210922092215 73 281 3.0 11.0 0.00 0.00 0.00 41 1022.4
20210922091716 73 256 4.0 12.0 0.00 0.00 0.00 41 1022.3
20210922091211 74 325 4.0 12.0 0.00 0.00 0.00 41 1022.3
20210922090712 74 289 4.0 12.0 0.00 0.00 0.00 41 1022.3
20210922090212 74 317 4.0 12.0 0.00 0.00 0.00 40 1022.3
20210922085713 74 286 3.0 12.0 0.00 0.00 0.00 40 1022.0
20210922085213 74 281 2.0 12.0 0.00 0.00 0.00 40 1022.0
20210922084712 74 290 3.0 11.0 0.00 0.00 0.00 40 1022.0
20210922084214 74 304 4.0 11.0 0.00 0.00 0.00 40 1021.9
20210922083712 74 305 3.0 11.0 0.00 0.00 0.00 40 1021.7
20210922083214 74 321 2.0 11.0 0.00 0.00 0.00 40 1021.7
20210922082713 74 267 3.0 10.0 0.00 0.00 0.00 39 1021.7
20210922082212 75 283 5.0 12.0 0.00 0.00 0.00 39 1021.7
20210922081712 75 302 0.0 12.0 0.00 0.00 0.00 39 1021.6
20210922081213 75 0.0 0.0 0.00 0.00 0.00 39 1021.5
20210922080709 75 0.0 0.0 0.00 0.00 0.00 38 1021.4
20210922080157 75 0.0 0.0 0.00 0.00 0.00 38 1021.4
20210922075631 76 0.0 0.0 0.00 0.00 0.00 38 1021.4
20210922075126 76 0.0 0.0 0.00 0.00 0.00 38 1021.3
20210922074626 76 0.0 0.0 0.00 0.00 0.00 37 1021.3
20210922074124 76 0.0 0.0 0.00 0.00 0.00 37 1021.4
20210922073616 76 0.0 0.0 0.00 0.00 0.00 37 1021.4
20210922073034 76 0.0 0.0 0.00 0.00 0.00 36 1021.3
20210922072528 76 0.0 0.0 0.00 0.00 0.00 36 1021.4
20210922072021 76 0.0 0.0 0.00 0.00 0.00 36 1021.5
20210922071509 77 0.0 0.0 0.00 0.00 0.00 35 1021.4
20210922070937 77 0.0 0.0 0.00 0.00 0.00 35 1021.4
20210922070425 77 0.0 0.0 0.00 0.00 0.00 35 1021.3
20210922065921 77 0.0 0.0 0.00 0.00 0.00 35 1021.2
20210922065420 77 0.0 0.0 0.00 0.00 0.00 35 1021.2
20210922064921 77 0.0 0.0 0.00 0.00 0.00 35 1021.3
20210922064402 77 0.0 0.0 0.00 0.00 0.00 35 1021.3
20210922063858 78 0.0 0.0 0.00 0.00 0.00 35 1021.1
20210922063332 78 0.0 0.0 0.00 0.00 0.00 35 1021.0
20210922062824 78 0.0 0.0 0.00 0.00 0.00 35 1021.0
20210922062325 78 0.0 0.0 0.00 0.00 0.00 35 1021.0
20210922061821 78 0.0 0.0 0.00 0.00 0.00 36 1021.0
20210922061310 78 0.0 0.0 0.00 0.00 0.00 36 1021.0
20210922060805 78 0.0 0.0 0.00 0.00 0.00 36 1021.0
20210922060245 78 0.0 0.0 0.00 0.00 0.00 37 1021.0
20210922055742 79 0.0 0.0 0.00 0.00 0.00 37 1020.9
20210922055237 79 0.0 0.0 0.00 0.00 0.00 38 1020.9
20210922054719 79 0.0 0.0 0.00 0.00 0.00 38 1021.0
20210922054209 79 0.0 0.0 0.00 0.00 0.00 39 1020.9
20210922053701 79 0.0 0.0 0.00 0.00 0.00 40 1021.0
20210922053137 80 0.0 0.0 0.00 0.00 0.00 40 1021.1
20210922052629 80 0.0 0.0 0.00 0.00 0.00 40 1021.3
20210922052121 80 0.0 0.0 0.00 0.00 0.00 40 1021.2
20210922051615 80 0.0 0.0 0.00 0.00 0.00 39 1021.1
20210922051044 80 0.0 0.0 0.00 0.00 0.00 39 1020.9
20210922050543 80 0.0 0.0 0.00 0.00 0.00 38 1020.9
20210922050033 81 0.0 0.0 0.00 0.00 0.00 38 1020.8
20210922045530 81 0.0 0.0 0.00 0.00 0.00 37 1020.9
20210922045021 81 0.0 0.0 0.00 0.00 0.00 38 1020.9
20210922044451 81 0.0 0.0 0.00 0.00 0.00 38 1020.9
20210922043951 81 0.0 0.0 0.00 0.00 0.00 38 1021.0
20210922043427 81 0.0 0.0 0.00 0.00 0.00 38 1020.9
20210922042927 81 0.0 0.0 0.00 0.00 0.00 39 1020.8
20210922042428 82 0.0 0.0 0.00 0.00 0.00 39 1020.9
20210922041920 82 0.0 0.0 0.00 0.00 0.00 40 1021.0
20210922041404 82 0.0 0.0 0.00 0.00 0.00 41 1021.0
20210922040858 82 0.0 0.0 0.00 0.00 0.00 41 1020.9
20210922040337 82 0.0 0.0 0.00 0.00 0.00 42 1021.0
20210922035830 82 0.0 0.0 0.00 0.00 0.00 42 1020.9
20210922035325 82 0.0 0.0 0.00 0.00 0.00 42 1020.9
20210922034822 83 0.0 0.0 0.00 0.00 0.00 42 1020.8
20210922034309 83 0.0 0.0 0.00 0.00 0.00 42 1020.8
20210922033802 83 0.0 0.0 0.00 0.00 0.00 43 1020.6
20210922033244 83 0.0 0.0 0.00 0.00 0.00 43 1020.5
20210922032729 83 0.0 0.0 0.00 0.00 0.00 43 1020.4
20210922032228 83 0.0 0.0 0.00 0.00 0.00 44 1020.0
20210922031702 83 0.0 0.0 0.00 0.00 0.00 44 1019.9
20210922031149 83 0.0 0.0 0.00 0.00 0.00 45 1019.6
20210922030639 83 0.0 0.0 0.00 0.00 0.00 45 1019.6
20210922030132 83 0.0 0.0 0.00 0.00 0.00 46 1019.6
20210922025627 83 0.0 0.0 0.00 0.00 0.00 46 1019.4
20210922025120 83 0.0 0.0 0.00 0.00 0.00 47 1019.2
20210922024619 84 0.0 0.0 0.00 0.00 0.00 47 1019.2
20210922024105 84 0.0 0.0 0.00 0.00 0.00 48 1019.2
20210922023549 84 0.0 0.0 0.00 0.00 0.00 48 1019.1
20210922023040 84 0.0 0.0 0.00 0.00 0.00 48 1019.2
20210922022529 84 0.0 0.0 0.00 0.00 0.00 49 1019.2
20210922022028 84 0.0 0.0 0.00 0.00 0.00 49 1019.2
20210922021524 85 0.0 0.0 0.00 0.00 0.00 49 1018.9
20210922021012 85 0.0 0.0 0.00 0.00 0.00 49 1018.7
20210922020512 85 0.0 0.0 0.00 0.00 0.00 50 1018.7
20210922020010 85 0.0 0.0 0.00 0.00 0.00 50 1018.6
20210922015453 85 0.0 0.0 0.00 0.00 0.00 50 1018.4
20210922014930 85 0.0 0.0 0.00 0.00 0.00 50 1018.2
20210922014427 85 0.0 0.0 0.00 0.00 0.00 50 1018.0
20210922013902 86 0.0 0.0 0.00 0.00 0.00 50 1017.9
20210922013402 86 0.0 0.0 0.00 0.00 0.00 50 1017.9
20210922012838 86 0.0 0.0 0.00 0.00 0.00 50 1017.8
20210922012329 86 0.0 0.0 0.00 0.00 0.00 49 1017.8
20210922011812 86 0.0 0.0 0.00 0.00 0.00 49 1017.7
20210922011300 87 0.0 0.0 0.00 0.00 0.00 49 1017.5
20210922010734 87 0.0 0.0 0.00 0.00 0.00 49 1017.4
20210922010223 87 0.0 0.0 0.00 0.00 0.00 48 1017.4
20210922005710 87 0.0 0.0 0.00 0.00 0.00 48 1017.4
20210922005145 87 0.0 0.0 0.00 0.00 0.00 48 1017.3
20210922004645 87 0.0 0.0 0.00 0.00 0.00 48 1017.3
20210922004132 87 0.0 0.0 0.00 0.00 0.00 48 1017.3
20210922003627 87 0.0 0.0 0.00 0.00 0.00 49 1017.2
20210922003116 87 0.0 0.0 0.00 0.00 0.00 49 1017.1
20210922002604 87 0.0 0.0 0.00 0.00 0.00 49 1017.0
20210922002044 87 0.0 0.0 0.00 0.00 0.00 49 1016.8
20210922001534 87 0.0 0.0 0.00 0.00 0.00 49 1016.7
20210922001030 87 0.0 0.0 0.00 0.00 0.00 49 1016.6
20210922000531 87 0.0 0.0 0.00 0.00 0.00 49 1016.6
20210922000029 87 0.0 0.0 0.00 0.00 0.00 49 1016.5
20210921235527 88 0.0 0.0 0.00 0.00 0.00 49 1016.5
20210921235028 88 0.0 0.0 0.00 0.00 0.00 49 1016.5
20210921234529 88 0.0 0.0 0.00 0.00 0.00 49 1016.5
20210921234029 88 0.0 0.0 0.00 0.00 0.00 48 1016.5
20210921233529 88 0.0 0.0 0.00 0.00 0.00 48 1016.5
20210921233010 88 0.0 0.0 0.00 0.00 0.00 49 1016.4
20210921232507 89 0.0 0.0 0.00 0.00 0.00 50 1016.3
20210921231942 89 0.0 0.0 0.00 0.00 0.00 54 1016.2
20210921231429 89 0.0 0.0 0.00 0.00 0.00 55 1016.0
20210921230930 90 0.0 0.0 0.00 0.00 0.00 55 1016.0
20210921230417 90 0.0 0.0 0.00 0.00 0.00 58 1015.9
20210921225848 90 0.0 0.0 0.00 0.00 0.00 59 1015.9
20210921225346 90 0.0 0.0 0.00 0.00 0.00 59 1015.8
20210921224840 90 0.0 0.0 0.00 0.00 0.00 59 1015.8
20210921224336 90 0.0 0.0 0.00 0.00 0.00 59 1015.8
20210921223833 90 0.0 0.0 0.00 0.00 0.00 59 1015.8
20210921223330 90 0.0 0.0 0.00 0.00 0.00 59 1015.7
20210921222831 90 0.0 0.0 0.00 0.00 0.00 59 1015.8
20210921222326 90 0.0 0.0 0.00 0.00 0.00 59 1015.6
20210921221826 90 0.0 0.0 0.00 0.00 0.00 59 1015.5
20210921221308 90 0.0 0.0 0.00 0.00 0.00 59 1015.6
20210921220746 90 0.0 0.0 0.00 0.00 0.00 59 1015.6
20210921220241 90 0.0 0.0 0.00 0.00 0.00 59 1015.6
20210921215730 90 0.0 0.0 0.00 0.00 0.00 58 1015.8
20210921215229 90 0.0 0.0 0.00 0.00 0.00 59 1015.7
20210921214726 90 0.0 0.0 0.00 0.00 0.00 58 1015.7
20210921214225 90 0.0 0.0 0.00 0.00 0.00 56 1015.6
20210921213724 90 0.0 0.0 0.00 0.00 0.00 56 1015.6
20210921213220 90 0.0 0.0 0.00 0.00 0.00 58 1015.5
20210921212722 90 0.0 0.0 0.00 0.00 0.00 58 1015.5
20210921212216 90 0.0 0.0 0.00 0.00 0.00 58 1015.5
20210921211642 90 0.0 0.0 0.00 0.00 0.00 56 1015.4
20210921211128 90 0.0 0.0 0.00 0.00 0.00 55 1015.4
20210921210558 90 0.0 0.0 0.00 0.00 0.00 54 1015.5
20210921210101 90 0.0 0.0 0.00 0.00 0.00 53 1015.5
20210921205535 91 0.0 0.0 0.00 0.00 0.00 51 1015.4
20210921205032 91 0.0 0.0 0.00 0.00 0.00 49 1015.4
20210921204529 92 0.0 0.0 0.00 0.00 0.00 51 1015.5
20210921204024 93 0.0 0.0 0.00 0.00 0.00 49 1015.5
20210921203522 93 0.0 0.0 0.00 0.00 0.00 49 1015.3
20210921203023 93 0.0 0.0 0.00 0.00 0.00 49 1015.4
20210921202508 94 0.0 0.0 0.00 0.00 0.00 49 1015.4
20210921201959 94 0.0 0.0 0.00 0.00 0.00 48 1015.5
20210921201452 94 0.0 0.0 0.00 0.00 0.00 47 1015.5
20210921200932 95 0.0 0.0 0.00 0.00 0.00 47 1015.6
20210921200425 95 0.0 0.0 0.00 0.00 0.00 46 1015.6
20210921195849 94 0.0 0.0 0.00 0.00 0.00 47 1015.6
20210921195343 94 0.0 0.0 0.00 0.00 0.00 48 1015.7
20210921194837 94 0.0 0.0 0.00 0.00 0.00 47 1015.8
20210921194330 94 0.0 0.0 0.00 0.00 0.00 46 1015.8
20210921193827 94 0.0 0.0 0.00 0.00 0.00 47 1015.9
20210921193308 94 0.0 0.0 0.00 0.00 0.00 47 1016.1
20210921192801 93 0.0 0.0 0.00 0.00 0.00 48 1016.2
20210921192248 93 0.0 0.0 0.00 0.00 0.00 48 1016.2
20210921191738 93 0.0 0.0 0.00 0.00 0.00 48 1016.5
20210921191220 93 0.0 0.0 0.00 0.00 0.00 49 1016.5
20210921190711 93 0.0 0.0 0.00 0.00 0.00 51 1016.6
20210921190155 92 0.0 0.0 0.00 0.00 0.00 51 1016.6
20210921185636 92 0.0 0.0 0.00 0.00 0.00 51 1016.6
20210921185129 92 0.0 0.0 0.00 0.00 0.00 50 1016.7
20210921184611 92 0.0 0.0 0.00 0.00 0.00 50 1016.7
20210921184102 92 0.0 0.0 0.00 0.00 0.00 51 1016.8
20210921183555 92 0.0 0.0 0.00 0.00 0.00 52 1016.8
20210921183054 92 0.0 0.0 0.00 0.00 0.00 53 1016.8
20210921182528 91 0.0 0.0 0.00 0.00 0.00 54 1016.8
20210921182020 91 0.0 0.0 0.00 0.00 0.00 55 1016.8
20210921181444 91 0.0 0.0 0.00 0.00 0.00 57 1016.9
20210921180930 91 0.0 0.0 0.00 0.00 0.00 57 1017.0
20210921180426 91 0.0 0.0 0.00 0.00 0.00 56 1016.9
20210921175919 90 281 0.0 0.0 0.00 0.00 0.00 60 1017.0
20210921175417 89 281 0.0 0.0 0.00 0.00 0.00 61 1017.0
20210921174859 89 281 0.0 0.0 0.00 0.00 0.00 62 1017.0
20210921174354 89 281 0.0 0.0 0.00 0.00 0.00 61 1017.0
20210921173853 90 284 0.0 0.0 0.00 0.00 0.00 60 1017.1
20210921173351 90 5 0.0 0.0 0.00 0.00 0.00 61 1017.2
20210921172849 90 96 0.0 0.0 0.00 0.00 0.00 63 1017.0
20210921172345 89 231 0.0 0.0 0.00 0.00 0.00 63 1017.2
20210921171844 89 231 0.0 0.0 0.00 0.00 0.00 63 1017.3
20210921171345 89 265 0.0 0.0 0.00 0.00 0.00 64 1017.3
20210921170844 89 20 0.0 0.0 0.00 0.00 0.00 64 1017.3
20210921170342 88 53 0.0 0.0 0.00 0.00 0.00 65 1017.2
20210921165836 88 322 0.0 0.0 0.00 0.00 0.00 65 1017.2